46.5°F
Current conditions from King Hill
Updated every 5 minutes
 
  Thursday October 30, 2014

Station Historical Data
 
Daily Summary for October 30, 2014 Units:  English    Metric   Both
« Previous Day
Next Day »
Daily Weekly Monthly Yearly Custom
  Current: High: Low: Average:
Temperature: 46.5 °F 47.0 °F 42.1 °F 44.5 °F
Dew Point: 36.1 °F 40.5 °F 35.3 °F 38.8 °F
Humidity: 67% 89% 66% 80%
Wind Speed: 0.0mph 7.0mph 1.0mph 1.8mph
Wind Gust: 4.0mph 13.0mph - -
WindCalm - - WNW
Pressure: 29.92 in 29.93 in 29.80 in -
Precipitation: 0.00 in      
Historical Graphs
 
 
Tabular Data for October 30, 2014
Time Temperature Dew Point Pressure Wind Wind Speed Wind Gust Humidity Daily Rainfall
00:00 45.1 °F 39.0 °F 29.80 in SW 1.0 mph 4.0 mph 79% 0.18 in
00:05 45.1 °F 39.0 °F 29.80 in Calm   4.0 mph 79% 0.00 in
00:10 45.0 °F 38.9 °F 29.81 in SSW 1.0 mph 3.0 mph 79% 0.00 in
00:15 44.9 °F 38.8 °F 29.81 in SSW 1.0 mph 4.0 mph 79% 0.00 in
00:20 44.8 °F 38.7 °F 29.81 in SSW 1.0 mph 4.0 mph 79% 0.00 in
00:25 44.8 °F 39.0 °F 29.81 in Calm   3.0 mph 80% 0.00 in
00:30 44.9 °F 39.1 °F 29.81 in WSW 1.0 mph 3.0 mph 80% 0.00 in
00:35 45.1 °F 39.3 °F 29.80 in WSW 2.0 mph 7.0 mph 80% 0.00 in
00:40 45.6 °F 39.5 °F 29.80 in WSW 1.0 mph 7.0 mph 79% 0.00 in
00:45 45.8 °F 39.7 °F 29.80 in WSW 1.0 mph 8.0 mph 79% 0.00 in
00:50 45.9 °F 39.8 °F 29.80 in Calm   8.0 mph 79% 0.00 in
00:55 46.1 °F 39.6 °F 29.80 in Calm   6.0 mph 78% 0.00 in
01:00 45.9 °F 39.8 °F 29.80 in Calm   6.0 mph 79% 0.00 in
01:05 45.8 °F 39.7 °F 29.80 in Calm   3.0 mph 79% 0.00 in
01:10 45.9 °F 39.8 °F 29.80 in Calm   6.0 mph 79% 0.00 in
01:15 45.9 °F 39.8 °F 29.80 in WSW 2.0 mph 7.0 mph 79% 0.00 in
01:20 46.0 °F 40.2 °F 29.80 in SW 1.0 mph 7.0 mph 80% 0.00 in
01:25 46.0 °F 40.2 °F 29.80 in SW 1.0 mph 4.0 mph 80% 0.00 in
01:30 46.0 °F 39.9 °F 29.80 in Calm   4.0 mph 79% 0.00 in
01:35 46.0 °F 39.9 °F 29.80 in Calm   4.0 mph 79% 0.00 in
01:40 46.0 °F 40.2 °F 29.80 in SW 1.0 mph 7.0 mph 80% 0.00 in
01:45 45.9 °F 40.1 °F 29.81 in SW 1.0 mph 7.0 mph 80% 0.00 in
01:50 45.8 °F 39.7 °F 29.81 in SW 2.0 mph 5.0 mph 79% 0.00 in
01:55 45.8 °F 40.0 °F 29.81 in Calm   5.0 mph 80% 0.00 in
02:00 45.8 °F 40.0 °F 29.81 in Calm   4.0 mph 80% 0.00 in
02:05 45.7 °F 39.9 °F 29.81 in Calm   5.0 mph 80% 0.00 in
02:10 45.5 °F 39.7 °F 29.81 in Calm   5.0 mph 80% 0.00 in
02:15 45.1 °F 39.3 °F 29.80 in Calm     80% 0.00 in
02:20 44.8 °F 39.3 °F 29.80 in Calm     81% 0.00 in
02:25 44.6 °F 39.1 °F 29.80 in Calm     81% 0.00 in
02:30 44.4 °F 39.3 °F 29.80 in Calm     82% 0.00 in
02:35 44.3 °F 39.2 °F 29.80 in Calm     82% 0.00 in
02:40 44.3 °F 39.5 °F 29.81 in Calm   2.0 mph 83% 0.00 in
02:45 44.3 °F 39.5 °F 29.81 in WSW 1.0 mph 5.0 mph 83% 0.00 in
02:50 44.6 °F 39.8 °F 29.81 in WSW 1.0 mph 6.0 mph 83% 0.00 in
02:55 44.8 °F 39.6 °F 29.81 in WSW 1.0 mph 7.0 mph 82% 0.00 in
03:00 45.0 °F 39.8 °F 29.81 in SW 1.0 mph 7.0 mph 82% 0.00 in
03:05 45.1 °F 39.6 °F 29.81 in WSW 3.0 mph 6.0 mph 81% 0.00 in
03:10 45.3 °F 39.8 °F 29.81 in WSW 1.0 mph 6.0 mph 81% 0.00 in
03:15 45.3 °F 39.8 °F 29.81 in Calm   4.0 mph 81% 0.00 in
03:20 45.4 °F 39.9 °F 29.81 in WSW 1.0 mph 8.0 mph 81% 0.00 in
03:25 45.4 °F 39.9 °F 29.81 in WSW 2.0 mph 8.0 mph 81% 0.00 in
03:30 45.5 °F 40.0 °F 29.81 in SW 1.0 mph 9.0 mph 81% 0.00 in
03:35 45.4 °F 39.9 °F 29.81 in Calm   9.0 mph 81% 0.00 in
03:40 45.3 °F 39.8 °F 29.81 in SW 1.0 mph 3.0 mph 81% 0.00 in
03:45 45.3 °F 39.8 °F 29.81 in Calm   4.0 mph 81% 0.00 in
03:50 45.4 °F 40.2 °F 29.81 in WSW 3.0 mph 8.0 mph 82% 0.00 in
03:55 45.4 °F 40.2 °F 29.81 in WSW 1.0 mph 8.0 mph 82% 0.00 in
04:00 45.4 °F 40.2 °F 29.81 in Calm   4.0 mph 82% 0.00 in
04:05 45.3 °F 40.1 °F 29.81 in Calm   5.0 mph 82% 0.00 in
04:10 45.2 °F 40.0 °F 29.82 in West 1.0 mph 5.0 mph 82% 0.00 in
04:15 45.2 °F 40.3 °F 29.82 in Calm   4.0 mph 83% 0.00 in
04:20 45.2 °F 40.3 °F 29.82 in West 1.0 mph 6.0 mph 83% 0.00 in
04:25 45.2 °F 40.3 °F 29.82 in WNW 1.0 mph 6.0 mph 83% 0.00 in
04:30 45.1 °F 40.3 °F 29.82 in West 1.0 mph 7.0 mph 83% 0.00 in
04:35 45.1 °F 40.3 °F 29.82 in West 3.0 mph 8.0 mph 83% 0.00 in
04:40 45.1 °F 40.3 °F 29.82 in Calm   8.0 mph 83% 0.00 in
04:45 44.9 °F 40.4 °F 29.82 in Calm   4.0 mph 84% 0.00 in
04:50 44.7 °F 40.2 °F 29.82 in West 1.0 mph 3.0 mph 84% 0.00 in
04:55 44.7 °F 40.2 °F 29.82 in West 1.0 mph 3.0 mph 84% 0.00 in
05:00 44.6 °F 40.1 °F 29.82 in WNW 1.0 mph 6.0 mph 84% 0.00 in
05:05 44.6 °F 40.1 °F 29.83 in WSW 1.0 mph 6.0 mph 84% 0.00 in
05:10 44.5 °F 40.0 °F 29.83 in Calm   3.0 mph 84% 0.00 in
05:15 44.5 °F 40.0 °F 29.83 in West 1.0 mph 5.0 mph 84% 0.00 in
05:20 44.5 °F 40.0 °F 29.83 in West 1.0 mph 5.0 mph 84% 0.00 in
05:25 44.5 °F 40.0 °F 29.83 in Calm   5.0 mph 84% 0.00 in
05:30 44.5 °F 40.0 °F 29.83 in Calm   4.0 mph 84% 0.00 in
05:35 44.5 °F 40.3 °F 29.83 in Calm   4.0 mph 85% 0.00 in
05:40 44.4 °F 39.9 °F 29.83 in Calm   4.0 mph 84% 0.00 in
05:45 44.3 °F 39.8 °F 29.83 in Calm   4.0 mph 84% 0.00 in
05:50 44.3 °F 40.1 °F 29.84 in Calm   4.0 mph 85% 0.00 in
05:55 44.3 °F 39.8 °F 29.84 in West 2.0 mph 5.0 mph 84% 0.00 in
06:00 44.3 °F 40.1 °F 29.84 in WNW 1.0 mph 5.0 mph 85% 0.00 in
06:05 44.3 °F 40.1 °F 29.84 in Calm   4.0 mph 85% 0.00 in
06:10 44.3 °F 40.1 °F 29.84 in Calm     85% 0.00 in
06:15 44.2 °F 40.3 °F 29.84 in Calm     86% 0.00 in
06:20 44.2 °F 40.3 °F 29.85 in Calm     86% 0.00 in
06:25 44.2 °F 40.3 °F 29.85 in WNW 1.0 mph 6.0 mph 86% 0.00 in
06:30 44.1 °F 40.5 °F 29.85 in Calm   6.0 mph 87% 0.00 in
06:35 43.8 °F 40.2 °F 29.85 in NW 2.0 mph 9.0 mph 87% 0.00 in
06:40 43.6 °F 40.0 °F 29.85 in NNW 1.0 mph 10.0 mph 87% 0.00 in
06:45 43.4 °F 40.1 °F 29.85 in NNW 2.0 mph 10.0 mph 88% 0.00 in
06:50 43.2 °F 39.9 °F 29.85 in NNW 1.0 mph 6.0 mph 88% 0.00 in
06:55 43.0 °F 40.0 °F 29.86 in NW 2.0 mph 6.0 mph 89% 0.00 in
07:00 43.0 °F 40.0 °F 29.86 in Calm   8.0 mph 89% 0.00 in
07:05 42.9 °F 39.9 °F 29.86 in NNW 1.0 mph 8.0 mph 89% 0.00 in
07:10 42.8 °F 39.5 °F 29.86 in NNW 2.0 mph 8.0 mph 88% 0.00 in
07:15 42.6 °F 39.6 °F 29.86 in Calm   8.0 mph 89% 0.00 in
07:20 42.4 °F 39.4 °F 29.86 in NW 3.0 mph 7.0 mph 89% 0.00 in
07:25 42.4 °F 39.4 °F 29.86 in WNW 2.0 mph 9.0 mph 89% 0.00 in
07:30 42.6 °F 39.6 °F 29.86 in NW 3.0 mph 9.0 mph 89% 0.00 in
07:35 42.7 °F 39.7 °F 29.87 in NW 2.0 mph 9.0 mph 89% 0.00 in
07:40 42.8 °F 39.8 °F 29.87 in Calm   9.0 mph 89% 0.00 in
07:45 42.8 °F 39.8 °F 29.88 in Calm   5.0 mph 89% 0.00 in
07:50 42.8 °F 39.8 °F 29.88 in Calm   8.0 mph 89% 0.00 in
07:55 42.7 °F 39.7 °F 29.88 in NNW 2.0 mph 8.0 mph 89% 0.00 in
08:00 42.6 °F 39.6 °F 29.88 in NW 1.0 mph 8.0 mph 89% 0.00 in
08:05 42.4 °F 38.8 °F 29.89 in NW 3.0 mph 12.0 mph 87% 0.00 in
08:10 42.2 °F 38.6 °F 29.89 in NW 2.0 mph 12.0 mph 87% 0.00 in
08:15 42.1 °F 38.5 °F 29.89 in Calm   10.0 mph 87% 0.00 in
08:20 42.1 °F 38.5 °F 29.90 in NNW 2.0 mph 10.0 mph 87% 0.00 in
08:25 42.2 °F 38.9 °F 29.90 in NNW 1.0 mph 10.0 mph 88% 0.00 in
08:30 42.2 °F 38.9 °F 29.90 in NW 1.0 mph 9.0 mph 88% 0.00 in
08:35 42.3 °F 38.7 °F 29.90 in NW 3.0 mph 10.0 mph 87% 0.00 in
08:40 42.3 °F 38.7 °F 29.91 in Calm   10.0 mph 87% 0.00 in
08:45 42.3 °F 38.7 °F 29.91 in NNW 2.0 mph 9.0 mph 87% 0.00 in
08:50 42.3 °F 38.7 °F 29.91 in Calm   9.0 mph 87% 0.00 in
08:55 42.5 °F 38.6 °F 29.91 in WNW 2.0 mph 8.0 mph 86% 0.00 in
09:00 42.7 °F 38.8 °F 29.91 in NW 1.0 mph 8.0 mph 86% 0.00 in
09:05 42.6 °F 38.4 °F 29.91 in NW 2.0 mph 7.0 mph 85% 0.00 in
09:10 42.5 °F 38.3 °F 29.91 in Calm   7.0 mph 85% 0.00 in
09:15 42.5 °F 38.3 °F 29.91 in Calm   6.0 mph 85% 0.00 in
09:20 42.7 °F 38.8 °F 29.91 in Calm     86% 0.00 in
09:25 43.1 °F 39.2 °F 29.91 in NW 1.0 mph 6.0 mph 86% 0.00 in
09:30 43.2 °F 38.7 °F 29.91 in NW 2.0 mph 7.0 mph 84% 0.00 in
09:35 43.4 °F 38.9 °F 29.91 in NW 1.0 mph 8.0 mph 84% 0.00 in
09:40 43.5 °F 38.4 °F 29.91 in WNW 5.0 mph 10.0 mph 82% 0.00 in
09:45 43.9 °F 38.5 °F 29.91 in NW 6.0 mph 11.0 mph 81% 0.00 in
09:50 44.5 °F 39.0 °F 29.91 in Calm   11.0 mph 81% 0.00 in
09:55 45.0 °F 39.2 °F 29.91 in NW 1.0 mph 8.0 mph 80% 0.00 in
10:00 44.7 °F 38.6 °F 29.92 in NW 4.0 mph 10.0 mph 79% 0.00 in
10:05 44.2 °F 38.4 °F 29.92 in NNW 2.0 mph 10.0 mph 80% 0.00 in
10:10 43.9 °F 38.1 °F 29.92 in WNW 5.0 mph 11.0 mph 80% 0.00 in
10:15 44.3 °F 38.5 °F 29.92 in North 2.0 mph 11.0 mph 80% 0.00 in
10:20 44.7 °F 38.6 °F 29.92 in NNW 4.0 mph 8.0 mph 79% 0.00 in
10:25 44.4 °F 38.3 °F 29.92 in NNW 2.0 mph 10.0 mph 79% 0.00 in
10:30 43.9 °F 37.5 °F 29.92 in NNW 2.0 mph 10.0 mph 78% 0.00 in
10:35 43.4 °F 37.6 °F 29.92 in NW 2.0 mph 9.0 mph 80% 0.00 in
10:40 43.7 °F 37.6 °F 29.92 in NW 1.0 mph 9.0 mph 79% 0.00 in
10:45 43.6 °F 37.2 °F 29.92 in NW 4.0 mph 9.0 mph 78% 0.00 in
10:50 43.5 °F 37.4 °F 29.92 in NW 1.0 mph 9.0 mph 79% 0.00 in
10:55 43.4 °F 37.3 °F 29.93 in NW 1.0 mph 8.0 mph 79% 0.00 in
11:00 43.4 °F 37.0 °F 29.93 in NNW 2.0 mph 9.0 mph 78% 0.00 in
11:05 43.5 °F 37.1 °F 29.93 in NW 3.0 mph 9.0 mph 78% 0.00 in
11:10 43.8 °F 37.1 °F 29.93 in Calm   8.0 mph 77% 0.00 in
11:15 43.6 °F 36.9 °F 29.93 in NNW 2.0 mph 8.0 mph 77% 0.00 in
11:20 43.4 °F 37.3 °F 29.93 in NW 1.0 mph 11.0 mph 79% 0.00 in
11:25 43.6 °F 36.5 °F 29.93 in NW 4.0 mph 11.0 mph 76% 0.00 in
11:30 43.5 °F 36.8 °F 29.93 in Calm   8.0 mph 77% 0.00 in
11:35 43.8 °F 36.7 °F 29.92 in WNW 2.0 mph 8.0 mph 76% 0.00 in
11:40 44.2 °F 36.8 °F 29.92 in Calm   8.0 mph 75% 0.00 in
11:45 44.4 °F 36.6 °F 29.92 in NNW 2.0 mph 9.0 mph 74% 0.00 in
11:50 45.2 °F 36.7 °F 29.92 in NNW 2.0 mph 9.0 mph 72% 0.00 in
11:55 45.4 °F 36.6 °F 29.92 in WNW 1.0 mph 8.0 mph 71% 0.00 in
12:00 46.5 °F 38.0 °F 29.92 in NNW 1.0 mph 5.0 mph 72% 0.00 in
12:05 46.4 °F 36.4 °F 29.92 in WNW 1.0 mph 9.0 mph 68% 0.00 in
12:10 46.4 °F 36.8 °F 29.92 in WNW 2.0 mph 10.0 mph 69% 0.00 in
12:15 46.8 °F 36.8 °F 29.92 in WNW 7.0 mph 11.0 mph 68% 0.00 in
12:20 47.0 °F 36.2 °F 29.92 in WNW 4.0 mph 11.0 mph 66% 0.00 in
12:25 45.9 °F 35.9 °F 29.92 in NNW 3.0 mph 13.0 mph 68% 0.00 in
12:30 45.0 °F 35.8 °F 29.92 in NNW 1.0 mph 13.0 mph 70% 0.00 in
12:35 45.4 °F 36.6 °F 29.92 in Calm   10.0 mph 71% 0.00 in
12:40 45.6 °F 36.4 °F 29.92 in WNW 1.0 mph 7.0 mph 70% 0.00 in
12:45 45.6 °F 35.7 °F 29.92 in WNW 2.0 mph 8.0 mph 68% 0.00 in
12:50 45.4 °F 36.2 °F 29.92 in Calm   8.0 mph 70% 0.00 in
12:55 45.4 °F 36.6 °F 29.92 in NNW 1.0 mph 8.0 mph 71% 0.00 in
13:00 45.2 °F 36.0 °F 29.92 in Calm   9.0 mph 70% 0.00 in
13:05 45.2 °F 35.6 °F 29.92 in NW 2.0 mph 9.0 mph 69% 0.00 in
13:10 45.2 °F 36.7 °F 29.92 in Calm   5.0 mph 72% 0.00 in
13:15 45.4 °F 36.2 °F 29.92 in NW 1.0 mph 5.0 mph 70% 0.00 in
13:20 45.5 °F 36.3 °F 29.92 in Calm   5.0 mph 70% 0.00 in
13:25 46.0 °F 36.8 °F 29.92 in NW 1.0 mph 4.0 mph 70% 0.00 in
13:30 46.1 °F 36.5 °F 29.92 in NNW 1.0 mph 6.0 mph 69% 0.00 in
13:35 46.1 °F 36.1 °F 29.92 in NNW 1.0 mph 9.0 mph 68% 0.00 in
13:40 46.1 °F 36.5 °F 29.92 in NW 1.0 mph 10.0 mph 69% 0.00 in
13:45 46.0 °F 35.7 °F 29.92 in NNW 1.0 mph 10.0 mph 67% 0.00 in
13:50 46.2 °F 35.9 °F 29.92 in Calm   5.0 mph 67% 0.00 in
13:55 46.3 °F 35.9 °F 29.92 in Calm   7.0 mph 67% 0.00 in
14:00 46.0 °F 35.3 °F 29.92 in NW 1.0 mph 7.0 mph 66% 0.00 in
14:05 46.5 °F 36.1 °F 29.92 in Calm   4.0 mph 67% 0.00 in
Westford Weather
Compliments of Weather Underground

 
 
Current Radar Loop:

Copyright © WestfordWeather.net 2007-2014. All rights reserved.